Weather History for KDVO - May, 2014

Change the Weather History Date:

Monday, May 12, 2014

  Actual Average (KAPC) Record (KAPC)
Temperature  
Mean Temperature 64 °F 58 °F  
Max Temperature 87 °F 72 °F 84 °F (2014)
Min Temperature 42 °F 45 °F 37 °F (2000)
Degree Days  
Heating Degree Days 0    
Month to date heating degree days  
Since 1 July heating degree days  
Cooling Degree Days 0    
Month to date cooling degree days  
Year to date cooling degree days  
Growing Degree Days 14 (Base 50)    
Moisture  
Dew Point 43 °F    
Average Humidity 53    
Maximum Humidity 100    
Minimum Humidity 17    
Precipitation  
Precipitation 0.00 in - 0.68 in (1925)
Month to date precipitation  
Year to date precipitation  
Sea Level Pressure  
Sea Level Pressure 30.08 in    
Wind  
Wind Speed 2 mph (North)    
Max Wind Speed 15 mph    
Max Gust Speed -    
Visibility 10 miles    
Events      
T = Trace of Precipitation, MM = Missing Value Source: NWS Daily Summary

Daily Weather History Graph

Daily Weather History Graph

Search for Another Location

Airport or City:

Trip Planner

Search our weather history database for the weather conditions in past years. The results will help you decide how hot, cold, wet, or windy it might be!

Date:

Astronomy

May. 12, 2014 Rise Set
Actual Time 6:02 AM PDT 8:11 PM PDT
Civil Twilight 5:32 AM PDT 8:40 PM PDT
Nautical Twilight 4:56 AM PDT 9:17 PM PDT
Astronomical Twilight 4:17 AM PDT 9:56 PM PDT
Moon 6:17 PM PDT (5/12) 4:42 AM PDT (5/12)
Length of Visible Light 15h 08m
Length of Day
14h 09m
Waxing Gibbous, 95% of the Moon is Illuminated
May 12
Waxing Gibbous
May 14
Full
May 21
Last Quarter
May 28
New
Jun 5
First Quarter

Hourly Weather History & Observations

Time (PDT) Temp. Windchill Dew Point Humidity Pressure Visibility Wind Dir Wind Speed Gust Speed Precip Events Conditions
12:15 AM 53.6 °F - 44.6 °F 72% 30.07 in 10.0 mi Calm Calm - N/A   Clear
12:35 AM 53.6 °F - 44.6 °F 72% 30.08 in 10.0 mi Calm Calm - N/A   Clear
12:55 AM 51.8 °F - 44.6 °F 76% 30.08 in 10.0 mi Calm Calm - N/A   Clear
1:15 AM 48.2 °F - 44.6 °F 87% 30.07 in 10.0 mi Calm Calm - N/A   Clear
1:35 AM 50.0 °F - 44.6 °F 82% 30.07 in 10.0 mi South 3.5 mph - N/A   Clear
1:55 AM 50.0 °F - 46.4 °F 87% 30.07 in 10.0 mi South 3.5 mph - N/A   Clear
2:15 AM 50.0 °F - 44.6 °F 82% 30.07 in 10.0 mi Calm Calm - N/A   Clear
2:35 AM 50.0 °F - 44.6 °F 82% 30.06 in 10.0 mi Calm Calm - N/A   Clear
2:55 AM 48.2 °F - 44.6 °F 87% 30.06 in 10.0 mi Calm Calm - N/A   Clear
3:15 AM 48.2 °F - 44.6 °F 87% 30.06 in 10.0 mi Calm Calm - N/A   Clear
3:35 AM 46.4 °F - 44.6 °F 93% 30.06 in 10.0 mi Calm Calm - N/A   Clear
3:55 AM 44.6 °F - 44.6 °F 100% 30.07 in 10.0 mi Calm Calm - N/A   Clear
4:15 AM 46.4 °F - 44.6 °F 93% 30.06 in 10.0 mi Calm Calm - N/A   Clear
4:35 AM 46.4 °F - 44.6 °F 93% 30.06 in 10.0 mi Calm Calm - N/A   Clear
4:55 AM 46.4 °F - 42.8 °F 87% 30.06 in 10.0 mi Calm Calm - N/A   Clear
5:15 AM 46.4 °F - 42.8 °F 87% 30.06 in 10.0 mi Calm Calm - N/A   Clear
5:35 AM 46.4 °F - 42.8 °F 87% 30.06 in 10.0 mi Calm Calm - N/A   Clear
5:55 AM 44.6 °F - 42.8 °F 93% 30.06 in 10.0 mi Calm Calm - N/A   Clear
6:15 AM 42.8 °F 41.1 °F 41.0 °F 93% 30.07 in 7.0 mi North 3.5 mph - N/A   Clear
6:35 AM 44.6 °F - 42.8 °F 93% 30.08 in 9.0 mi Calm Calm - N/A   Clear
6:55 AM 46.4 °F - 44.6 °F 93% 30.08 in 10.0 mi Calm Calm - N/A   Clear
7:15 AM 48.2 °F - 44.6 °F 87% 30.09 in 10.0 mi Calm Calm - N/A   Clear
7:35 AM 50.0 °F - 44.6 °F 82% 30.09 in 10.0 mi Calm Calm - N/A   Clear
7:55 AM 53.6 °F - 46.4 °F 77% 30.10 in 10.0 mi Calm Calm - N/A   Clear
8:15 AM 55.4 °F - 46.4 °F 72% 30.10 in 10.0 mi Calm Calm - N/A   Clear
8:35 AM 57.2 °F - 46.4 °F 67% 30.11 in 10.0 mi Calm Calm - N/A   Clear
8:55 AM 60.8 °F - 46.4 °F 59% 30.11 in 10.0 mi Calm Calm - N/A   Clear
9:15 AM 62.6 °F - 48.2 °F 59% 30.11 in 10.0 mi Calm Calm - N/A   Clear
9:35 AM 66.2 °F - 46.4 °F 49% 30.11 in 10.0 mi Calm Calm - N/A   Clear
9:55 AM 68.0 °F - 48.2 °F 49% 30.11 in 10.0 mi Calm Calm - N/A   Clear
10:15 AM 71.6 °F - 48.2 °F 43% 30.11 in 10.0 mi Calm Calm - N/A   Clear
10:35 AM 71.6 °F - 46.4 °F 41% 30.12 in 10.0 mi SE 3.5 mph - N/A   Clear
10:55 AM 73.4 °F - 46.4 °F 38% 30.12 in 10.0 mi East 3.5 mph - N/A   Clear
11:15 AM 75.2 °F - 46.4 °F 36% 30.12 in 10.0 mi Calm Calm - N/A   Clear
11:35 AM 75.2 °F - 46.4 °F 36% 30.11 in 10.0 mi South 5.8 mph - N/A   Clear
11:55 AM 77.0 °F - 44.6 °F 32% 30.11 in 10.0 mi Calm Calm - N/A   Clear
12:15 PM 78.8 °F - 44.6 °F 30% 30.11 in 10.0 mi Calm Calm - N/A   Clear
12:35 PM 80.6 °F - 44.6 °F 28% 30.11 in 10.0 mi SE 5.8 mph - N/A   Clear
12:55 PM 80.6 °F - 42.8 °F 26% 30.11 in 10.0 mi SE 5.8 mph - N/A   Clear
1:15 PM 80.6 °F - 42.8 °F 26% 30.11 in 10.0 mi ESE 3.5 mph - N/A   Clear
1:35 PM 82.4 °F - 42.8 °F 25% 30.10 in 10.0 mi SE 4.6 mph - N/A   Clear
1:55 PM 82.4 °F - 41.0 °F 23% 30.10 in 10.0 mi SSW 3.5 mph - N/A   Clear
2:15 PM 86.0 °F - 41.0 °F 20% 30.09 in 10.0 mi SE 4.6 mph - N/A   Clear
2:35 PM 86.0 °F - 39.2 °F 19% 30.08 in 10.0 mi SSE 4.6 mph - N/A   Clear
2:55 PM 86.0 °F - 37.4 °F 18% 30.08 in 10.0 mi ESE 8.1 mph - N/A   Clear
3:15 PM 86.0 °F - 37.4 °F 18% 30.07 in 10.0 mi SE 5.8 mph - N/A   Clear
3:35 PM 87.8 °F - 37.4 °F 17% 30.06 in 10.0 mi Calm Calm - N/A   Clear
3:55 PM 86.0 °F - 42.8 °F 22% 30.06 in 10.0 mi NW 9.2 mph - N/A   Clear
4:15 PM 86.0 °F - 42.8 °F 22% 30.06 in 10.0 mi West 11.5 mph - N/A   Clear
4:35 PM 86.0 °F - 39.2 °F 19% 30.05 in 10.0 mi WNW 8.1 mph - N/A   Clear
4:55 PM 84.2 °F - 37.4 °F 19% 30.05 in 10.0 mi NW 9.2 mph - N/A   Clear
5:15 PM 86.0 °F - 39.2 °F 19% 30.05 in 10.0 mi WNW 6.9 mph - N/A   Clear
5:35 PM 84.2 °F - 39.2 °F 20% 30.05 in 10.0 mi NW 9.2 mph - N/A   Clear
5:55 PM 80.6 °F - 44.6 °F 28% 30.05 in 10.0 mi North 15.0 mph - N/A   Clear
6:15 PM 78.8 °F - 44.6 °F 30% 30.05 in 10.0 mi North 10.4 mph - N/A   Clear
6:35 PM 77.0 °F - 44.6 °F 32% 30.05 in 10.0 mi North 10.4 mph - N/A   Clear
6:55 PM 75.2 °F - 41.0 °F 29% 30.05 in 10.0 mi NNW 9.2 mph - N/A   Clear
7:15 PM 73.4 °F - 41.0 °F 31% 30.04 in 10.0 mi NNW 5.8 mph - N/A   Clear
7:35 PM 75.2 °F - 32.0 °F 21% 30.05 in 10.0 mi WNW 5.8 mph - N/A   Clear
7:55 PM 68.0 °F - 41.0 °F 37% 30.05 in 10.0 mi NNE 9.2 mph - N/A   Clear
8:15 PM 66.2 °F - 41.0 °F 40% 30.05 in 10.0 mi NNE 8.1 mph - N/A   Clear
8:35 PM 68.0 °F - 37.4 °F 33% 30.05 in 10.0 mi NNE 4.6 mph - N/A   Clear
8:55 PM 66.2 °F - 37.4 °F 35% 30.06 in 10.0 mi NE 6.9 mph - N/A   Clear
9:15 PM 66.2 °F - 37.4 °F 35% 30.06 in 10.0 mi NE 4.6 mph - N/A   Clear
9:35 PM 62.6 °F - 44.6 °F 52% 30.07 in 10.0 mi Calm Calm - N/A   Clear
9:55 PM 60.8 °F - 44.6 °F 55% 30.07 in 10.0 mi NNW 3.5 mph - N/A   Clear
10:15 PM 60.8 °F - 44.6 °F 55% 30.07 in 10.0 mi North 6.9 mph - N/A   Clear
10:35 PM 60.8 °F - 46.4 °F 59% 30.07 in 10.0 mi Calm Calm - N/A   Clear
10:55 PM 57.2 °F - 44.6 °F 63% 30.08 in 10.0 mi North 4.6 mph - N/A   Clear
11:15 PM 57.2 °F - 46.4 °F 67% 30.08 in 10.0 mi North 3.5 mph - N/A   Clear
11:35 PM 57.2 °F - 44.6 °F 63% 30.08 in 10.0 mi NNW 3.5 mph - N/A   Clear
11:55 PM 57.2 °F - 41.0 °F 55% 30.08 in 10.0 mi NW 3.5 mph - N/A   Clear